Location: Eastlake (historical)
(39.0077°N, 122.6678°W)
Time: 05:02:13
(UTC+00:00)

Lacrosse 4 Rocket - Pass Details

Date: 25 November 2020
Orbit: 537 x 620 km, 68.0° (Epoch: 24 January)

Event Time Altitude Azimuth Distance (km) Brightness Sun altitude
Exits shadow 12:55:34 12° 9° (N) 1,764 3.9 -24.8°
Maximum altitude 12:58:17 21° 53° (NE) 1,365 3.8 -24.3°
Drops below altitude 10° 13:01:37 10° 103° (ESE) 1,946 5.2 -23.6°
Sets 13:04:21 0° 119° (ESE) 2,858 6.2 -23.1°
